SCP
0 0 0 0 0 0 0 0 0 0 0 0 0 0 0 0 0 0 0 0 0 0 0 0 0 0 0 0 0 0 0 0 0 0 0 0 0 0
0 0 0 0 0 0 0 0 0 0 0 0 0 0 0 0 0 0 0 0 0 0 0 0 0 0 0 0 0 0 0 0 0 0 0 0 0 0
0 0 0 0 0 0 0 0 0 0 0 0 0 0 0 0 0 0 0 0 0 0 0 0 0 0 0 0 0 0 0 0 0 0 0 0 0 0
0 0 0 0 0 0 0 0 0 0 0 0 0 0 0 0 0 0 0 0 0 0 0 0 0 0 0 0 0 0 0 0 0 0 0 0 0 0
0 0 0 0 0 0 0 0 0 0 0 0 0 0 0 0 0 0 0 0 0 0 0 0 0 0 0 0 0 0 0 0 0 0 0 0 0 0
0 0 0 0 0 0 0 0 0 0 0 0 0 0 0 0 0 0 0 0 0 0 0 0 0 0 0 0 0 0 0 0 0 0 0 0 0 0
0 0 0 0 0 0 0 0 0 0 0 0 0 0 0 0 0 0 0 0 0 0 0 0 0 0 0 0 0 0 0 0 0 0 0 0 0 0
0 0 0 0 0 0 0 0 0 0 0 0 0 0 0 0 0 0 0 0 0 0 0 0 0 0 0 0 0 0 0 0 0 0 0 0 0 0
0 0 0 0 0 0 0 0 0 0 0 0 0 0 0 0 0 0 0 0 0 0 0 0 0 0 0 0 0 0 0 0 0 0 0 0 0 0
0 0 0 0 0 0 0 0 0 0 0 0 0 0 0 0 0 0 0 0 0 0 0 0 0 0 0 0 0 0 0 0 0 0 0 0 0 0
0 0 0 0 0 0 0 0 0 0 0 0 0 0 0 0 0 0 0 0 0 0 0 0 0 0 0 0 0 0 0 0 0 0 0 0 0 0
0 0 0 0 0 0 0 0 0 0 0 0 0 0 0 0 0 0 0 0 0 0 0 0 0 0 0 0 0 0 0 0 0 0 0 0 0 0
0 0 0 0 0 0 0 0 0 0 0 0 0 0 0 0 0 0 0 0 0 0 0 0 0 0 0 0 0 0 0 0 0 0 0 0 0 0
0 0 0 0 0 0 0 0 0 0 0 0 0 0 0 0 0 0 0 0 0 0 0 0 0 0 0 0 0 0 0 0 0 0 0 0 0 0
0 0 0 0 0 0 0 0 0 0 0 0 0 0 0 0 0 0 0 0 0 0 0 0 0 0 0 0 0 0 0 0 0 0 0 0 0 0
0 0 0 0 0 0 0 0 0 0 0 0 0 0 0 0 0 0 0 0 0 0 0 0 0 0 0 0 0 0 0 0 0 0 0 0 0 0
0 0 0 0 0 0 0 0 0 0 0 0 0 0 0 0 0 0 0 0 0 0 0 0 0 0 0 0 0 0 0 0 0 0 0 0 0 0
0 0 0 0 0 0 0 0 0 0 0 0 0 0 0 0 0 0 0 0 0 0 0 0 0 0 0 0 0 0 0 0 0 0 0 0 0 0
0 0 0 0 0 0 0 0 0 0 0 0 0 0 0 0 0 0 0 0 0 0 0 0 0 0 0 0 0 0 0 0 0 0 0 0 0 0
0 0 0 0 0 0 0 0 0 0 0 0 0 0 0 0 0 0 0 0 0 0 0 0 0 0 0 0 0 0 0 0 0 0 0 0 0 0
0 0 0 0 0 0 0 0 0 0 0 0 0 0 0 0 0 0 0 0 0 0 0 0 0 0 0 0 0 0 0 0 0 0 0 0 0 0
0 0 0 0 0 0 0 0 0 0 0 0 0 0 0 0 0 0 0 0 0 0 0 0 0 0 0 0 0 0 0 0 0 0 0 0 0 0
0 0 0 0 0 0 0 0 0 0 0 0 0 0 0 0 0 0 0 0 0 0 0 0 0 0 0 0 0 0 0 0 0 0 0 0 0 0
Wind_Speed
2 3 2 1 1 1 1 1 1 1 0 1 0 1 1 2 3 3 3 5 6 6 6 6 5 5 6 6 6 5 5 5 6 7 7 7 8 9
1 1 1 1 1 1 0 0 1 1 1 1 1 1 1 3 3 3 4 7 6 6 6 6 6 6 6 6 6 6 5 5 5 5 6 6 6 5
2 1 0 1 1 1 1 1 1 1 1 1 1 1 1 2 2 2 3 4 3 6 6 6 6 6 6 6 5 6 6 5 4 4 4 4 4 4
2 1 1 0 0 1 1 1 1 0 1 1 1 1 1 2 2 2 2 3 3 6 7 7 7 6 6 5 5 6 6 5 5 4 4 4 4 4
2 2 1 1 1 1 0 1 1 0 1 2 1 1 1 1 2 1 2 2 3 5 6 7 7 7 6 6 6 6 6 5 5 4 4 4 3 3
3 3 2 1 1 1 1 1 1 0 1 1 1 1 1 1 2 2 1 1 1 3 3 5 6 7 7 7 6 6 6 6 6 5 4 4 3 3
3 3 3 4 4 2 1 0 0 0 1 1 1 1 1 2 2 2 2 2 1 1 2 3 4 3 3 5 6 7 7 6 6 5 5 4 3 3
4 3 4 5 6 6 5 4 3 1 1 1 2 2 3 3 2 2 3 2 1 1 2 2 3 3 3 3 6 7 7 7 6 5 5 4 3 3
5 3 3 4 6 6 7 6 4 4 4 2 2 3 3 4 4 3 2 2 3 2 2 1 2 3 3 5 9 8 7 7 7 6 5 4 3 2
6 5 4 4 5 6 6 6 5 5 6 5 3 2 2 3 4 4 4 2 1 1 2 2 2 3 4 3 8 9 8 7 7 6 5 3 2 1
7 7 6 5 7 7 5 5 5 5 7 8 7 5 4 4 4 3 3 3 2 2 2 3 2 3 3 3 4 8 8 8 7 6 5 3 1 1
5 6 8 8 8 9 6 5 5 5 5 6 5 5 5 5 6 4 4 3 3 2 3 3 3 3 3 2 3 4 4 5 7 6 5 4 1 1
5 4 5 8 9 10 9 6 7 6 5 6 6 5 4 4 4 4 4 4 4 3 4 4 3 3 3 3 3 4 4 3 3 3 4 4 3 2
5 5 5 7 9 10 9 9 10 7 3 4 4 5 5 5 5 5 5 4 3 4 4 4 3 3 3 3 3 3 3 3 3 3 3 4 3 3
6 8 9 9 8 8 11 12 9 5 4 5 5 6 6 6 5 5 5 4 3 2 3 3 3 3 3 3 3 3 3 2 3 3 3 3 2 2
6 8 10 10 8 8 8 8 7 6 6 6 6 5 5 5 5 5 4 4 3 2 1 3 4 4 3 3 3 3 3 3 3 3 3 2 1 1
7 6 5 5 4 5 5 5 6 6 7 6 6 5 5 6 5 4 4 4 4 4 3 2 2 3 4 4 3 3 3 2 3 3 3 1 1 1
8 6 6 6 6 6 6 6 6 7 7 7 7 7 7 7 6 5 5 5 5 5 5 4 3 2 1 1 2 4 3 2 2 3 3 2 2 2
6 7 7 7 7 6 6 6 7 7 7 7 7 7 7 7 6 6 6 6 5 5 5 5 5 5 5 4 3 2 4 3 2 2 2 2 3 2
5 7 7 6 6 6 6 6 6 6 6 7 7 7 7 7 7 8 7 7 6 6 5 5 6 7 7 6 4 2 4 4 3 3 2 1 1 1
6 7 6 6 6 6 6 6 6 6 6 6 6 7 7 7 7 8 8 10 8 7 8 7 7 8 4 4 3 2 2 3 4 4 3 2 0 1
6 7 6 6 6 6 5 5 6 6 7 7 6 7 7 7 7 9 9 8 7 7 7 5 6 5 4 4 4 4 3 2 1 2 4 6 5 4
6 7 6 6 6 5 5 6 7 7 7 6 6 6 7 7 7 7 7 8 7 7 6 6 5 4 4 4 4 3 4 4 2 1 2 5 8 9
Wind_Direction
350 346 344 325 13 48 63 129 138 151 224 182 139 166 150 134 149 156 151 166 168 170 172 169 165 161 162 163 168 176 181 187 185 186 193 202 211 216
245 284 324 341 345 9 329 352 129 159 188 187 175 166 140 150 161 159 158 158 163 165 168 170 166 159 155 155 157 158 159 162 167 177 189 200 208 213
286 247 213 23 353 358 10 8 1 94 140 183 141 146 133 127 141 152 152 157 165 167 165 165 165 163 161 161 163 167 166 164 166 173 183 194 195 196
288 305 269 159 72 7 14 344 339 117 133 166 174 150 157 147 143 152 152 150 153 165 168 169 166 164 161 159 162 164 165 167 168 170 172 181 186 185
231 245 255 200 188 188 190 305 307 61 128 152 173 156 149 135 119 115 107 114 147 156 164 167 166 164 161 159 155 155 154 154 154 155 153 148 146 156
222 216 210 198 185 196 189 242 273 114 160 152 159 174 159 154 136 153 137 137 151 149 143 151 158 158 160 158 155 153 151 146 143 142 143 143 143 145
243 215 186 166 150 146 133 120 49 123 178 170 181 186 190 165 181 181 163 166 170 141 139 150 144 143 158 158 152 151 150 148 146 143 139 142 143 142
264 234 197 183 182 179 173 172 160 167 204 202 194 195 202 185 177 174 162 155 193 213 149 168 155 153 153 136 142 143 145 146 146 145 144 146 150 157
277 263 245 208 188 187 197 201 206 212 207 201 214 220 199 187 172 173 171 169 185 192 141 158 146 134 137 140 144 142 142 142 140 139 139 139 143 148
266 259 245 229 209 197 191 194 203 211 214 208 211 236 221 181 168 174 175 154 135 158 136 159 170 148 133 134 150 147 145 144 143 142 141 140 150 191
254 253 241 228 218 208 202 203 203 213 207 192 185 181 168 159 154 137 147 143 176 217 184 162 168 143 136 144 160 160 156 156 155 153 152 150 181 258
254 253 245 233 221 209 204 211 216 214 193 186 188 189 188 186 183 177 171 171 181 203 202 169 170 147 148 159 161 168 167 176 176 175 171 168 158 95
267 260 249 237 227 216 211 213 218 211 200 190 190 193 194 194 193 198 192 184 188 204 192 165 167 161 154 153 164 179 175 169 174 187 189 185 172 147
283 278 273 258 239 227 221 225 223 215 206 198 195 197 198 198 194 192 198 197 185 187 180 159 159 163 152 151 171 172 176 171 165 170 178 194 203 202
290 289 290 285 265 242 230 226 220 213 206 208 209 209 203 193 185 184 188 181 171 167 157 147 146 148 145 159 167 162 166 182 165 153 154 162 187 186
298 298 291 273 255 245 237 226 218 212 207 212 210 206 194 187 184 176 175 170 161 185 172 146 143 146 154 162 156 165 159 171 170 154 146 157 181 186
301 291 282 271 250 245 238 221 213 212 217 214 208 204 197 192 190 178 169 168 174 180 183 176 138 129 144 151 158 173 170 172 169 153 135 157 244 229
295 280 269 260 252 242 238 231 220 217 216 215 212 204 200 194 189 180 175 177 184 184 180 171 149 122 84 332 178 172 172 172 162 146 136 155 245 269
281 271 267 262 256 250 243 237 231 222 214 217 216 209 199 192 186 186 185 184 188 185 180 170 164 163 179 208 244 196 167 166 149 146 162 169 204 234
262 265 268 265 264 260 252 248 243 230 219 217 217 212 203 194 189 188 190 189 188 182 177 175 178 181 188 188 185 211 193 161 155 166 180 169 234 261
272 269 265 265 264 263 261 254 251 246 229 218 218 215 206 199 195 191 190 191 188 184 186 190 187 170 147 123 125 161 208 198 163 162 159 143 220 287
278 275 272 269 266 264 260 258 255 254 242 227 218 217 208 199 196 193 190 187 191 188 182 168 155 149 147 160 169 171 175 184 226 178 171 170 167 194
277 280 275 271 267 261 257 256 255 254 246 233 221 215 208 200 194 191 192 186 179 174 161 154 155 152 157 159 163 165 166 169 163 166 267 235 222 227